Weather History for Fresno, CA

Change the Weather History Date:

Monday, June 18, 2012

  Actual Average Record
Temperature  
Mean Temperature 87 °F 78 °F  
Max Temperature 101 °F 93 °F 106 °F (1945)
Min Temperature 73 °F 63 °F 50 °F (1908)
Degree Days  
Heating Degree Days 0    
Month to date heating degree days 2  
Since 1 June heating degree days 2  
Since 1 July heating degree days 2197  
Cooling Degree Days 22    
Month to date cooling degree days 258  
Year to date cooling degree days 579  
Since 1 June cooling degree days 258  
Growing Degree Days 36 (Base 50)    
Moisture  
Dew Point 46 °F    
Average Humidity 33    
Maximum Humidity 54    
Minimum Humidity 12    
Precipitation  
Precipitation 0.00 in 0.01 in 0.06 in (1894)
Month to date precipitation T 0.18  
Year to date precipitation 6.58 7.81  
Since 1 July precipitation 8.15 11.47  
Snow  
Snow 0.00 in - - ()
Month to date snowfall 0.0  
Since 1 June snowfall 0.0  
Since 1 July snowfall 0.0  
Snow Depth 0.00 in    
Sea Level Pressure  
Sea Level Pressure 29.79 in    
Wind  
Wind Speed 5 mph (NW)    
Max Wind Speed 15 mph    
Max Gust Speed 20 mph    
Visibility 10 miles    
Events      
T = Trace of Precipitation, MM = Missing Value Source: NWS Daily Summary

Daily Weather History Graph

Daily Weather History Graph

Search for Another Location

Airport:

Trip Planner

Search our weather history database for the weather conditions in past years. The results will help you decide how hot, cold, wet, or windy it might be!

Date:

Astronomy

Jun. 18, 2012 Rise Set
Actual Time 5:39 AM PDT 8:20 PM PDT
Civil Twilight 5:09 AM PDT 8:51 PM PDT
Nautical Twilight 4:30 AM PDT 9:29 PM PDT
Astronomical Twilight 3:47 AM PDT 10:12 PM PDT
Moon 4:57 AM PDT (6/18) 7:44 PM PDT (6/18)
Length of Visible Light 15h 42m
Length of Day
14h 40m
Waning Crescent, 1% of the Moon is Illuminated
Jun 18
Waning Crescent
Jun 19
New
Jun 26
First Quarter
Jul 3
Full
Jul 10
Last Quarter

Hourly Weather History & Observations

Time (PDT) Temp. Heat Index Dew Point Humidity Pressure Visibility Wind Dir Wind Speed Gust Speed Precip Events Conditions
12:53 AM 80.1 °F 79.9 °F 53.1 °F 39% 29.78 in 10.0 mi NNW 9.2 mph - N/A   Clear
1:53 AM 77.0 °F - 54.0 °F 45% 29.79 in 10.0 mi NNW 8.1 mph - N/A   Clear
2:53 AM 75.9 °F - 55.0 °F 48% 29.80 in 8.0 mi WNW 6.9 mph - N/A   Clear
3:53 AM 75.0 °F - 55.0 °F 50% 29.80 in 10.0 mi NNE 4.6 mph - N/A   Clear
4:53 AM 73.9 °F - 55.9 °F 53% 29.81 in 10.0 mi Calm Calm - N/A   Clear
5:53 AM 73.0 °F - 55.9 °F 55% 29.83 in 10.0 mi Calm Calm - N/A   Clear
6:53 AM 75.9 °F - 57.0 °F 52% 29.83 in 10.0 mi Calm Calm - N/A   Clear
7:53 AM 79.0 °F - 57.0 °F 47% 29.84 in 10.0 mi Calm Calm - N/A   Clear
8:53 AM 84.0 °F 82.9 °F 55.0 °F 37% 29.84 in 10.0 mi SSE 3.5 mph - N/A   Clear
9:53 AM 87.1 °F - 48.9 °F 27% 29.83 in 10.0 mi Calm Calm - N/A   Clear
10:53 AM 91.0 °F - 51.1 °F 25% 29.82 in 10.0 mi Calm Calm - N/A   Clear
11:53 AM 93.0 °F - 48.0 °F 21% 29.81 in 10.0 mi Variable 3.5 mph - N/A   Clear
12:53 PM 97.0 °F - 45.0 °F 17% 29.79 in 10.0 mi NNW 5.8 mph - N/A   Clear
1:53 PM 98.1 °F - 43.0 °F 15% 29.78 in 10.0 mi Variable 3.5 mph - N/A   Clear
2:53 PM 100.0 °F - 39.0 °F 12% 29.76 in 10.0 mi NNW 8.1 mph - N/A   Clear
3:53 PM 100.0 °F - 42.1 °F 14% 29.75 in 10.0 mi WNW 13.8 mph 19.6 mph N/A   Partly Cloudy
4:53 PM 100.0 °F - 41.0 °F 13% 29.73 in 10.0 mi WNW 10.4 mph 16.1 mph N/A   Partly Cloudy
5:53 PM 99.0 °F - 43.0 °F 15% 29.73 in 10.0 mi WNW 15.0 mph 21.9 mph N/A   Partly Cloudy
6:53 PM 96.1 °F - 39.9 °F 14% 29.73 in 10.0 mi NW 12.7 mph - N/A   Partly Cloudy
7:53 PM 91.0 °F - 28.0 °F 10% 29.73 in 10.0 mi NW 13.8 mph - N/A   Partly Cloudy
8:53 PM 87.1 °F - 28.0 °F 12% 29.74 in 10.0 mi NW 16.1 mph - N/A   Partly Cloudy
9:53 PM 82.0 °F - 37.9 °F 21% 29.76 in 10.0 mi NNW 9.2 mph - N/A   Clear
10:53 PM 79.0 °F - 39.0 °F 24% 29.78 in 10.0 mi NNW 10.4 mph - N/A   Clear
11:53 PM 75.9 °F - 36.0 °F 23% 29.78 in 10.0 mi NW 10.4 mph - N/A   Clear